| time (UTC) | temp F | wind direction | speed knots | gust knots | rain 1hr in | rain 24hr in | rain mn in | humidity % | barometer mb |
| 20260506163529 | 74 | 254 | 2.6 | 3.5 | 0.00 | 0.00 | 0.00 | 54 | 1021.4 |
| 20260506162516 | 73 | 264 | 1.7 | 3.5 | 0.00 | 0.00 | 0.00 | 53 | 1021.4 |
| 20260506161521 | 75 | 269 | 1.7 | 3.5 | 0.00 | 0.00 | 0.00 | 53 | 1021.4 |
| 20260506160625 | 74 | 243 | 1.7 | 2.6 | 0.00 | 0.00 | 0.00 | 56 | 1021.4 |
| 20260506155530 | 71 | 240 | 0.0 | 1.7 | 0.00 | 0.00 | 0.00 | 63 | 1021.6 |
| 20260506154516 | 68 | 170 | 0.0 | 1.7 | 0.00 | 0.00 | 0.00 | 66 | 1021.7 |
| 20260506153520 | 66 | 252 | 0.0 | 0.9 | 0.00 | 0.00 | 0.00 | 71 | 1021.9 |
| 20260506152525 | 65 | 337 | 0.0 | 1.7 | 0.00 | 0.00 | 0.00 | 72 | 1021.9 |
| 20260506151529 | 63 | 90 | 0.0 | 2.6 | 0.00 | 0.00 | 0.00 | 75 | 1021.9 |
| 20260506150516 | 60 | 153 | 0.0 | 1.7 | 0.00 | 0.00 | 0.00 | 81 | 1021.9 |
| 20260506145520 | 58 | 135 | 0.0 | 2.6 | 0.00 | 0.00 | 0.00 | 86 | 1021.9 |
| 20260506144604 | 55 | 0.0 | 0.0 | 0.00 | 0.00 | 0.00 | 95 | 1021.8 | |
| 20260506143529 | 54 | 0.0 | 0.0 | 0.00 | 0.00 | 0.00 | 99 | 1021.8 | |
| 20260506142516 | 51 | 0.0 | 0.0 | 0.00 | 0.00 | 0.00 | 99 | 1021.6 | |
| 20260506141640 | 49 | 0.0 | 0.0 | 0.00 | 0.00 | 0.00 | 99 | 1021.5 | |
| 20260506140545 | 47 | 0.0 | 0.0 | 0.00 | 0.00 | 0.00 | 99 | 1021.4 | |
| 20260506135529 | 45 | 270 | 0.0 | 1.7 | 0.00 | 0.00 | 0.00 | 99 | 1021.4 |
| 20260506134515 | 43 | 0.0 | 0.0 | 0.00 | 0.00 | 0.00 | 99 | 1021.4 | |
| 20260506133540 | 43 | 0.0 | 0.0 | 0.00 | 0.00 | 0.00 | 99 | 1021.3 | |
| 20260506132524 | 42 | 0.0 | 0.0 | 0.00 | 0.00 | 0.00 | 99 | 1021.1 | |
| 20260506131529 | 42 | 0.0 | 0.0 | 0.00 | 0.00 | 0.00 | 99 | 1021.0 | |
| 20260506130515 | 42 | 0.0 | 0.0 | 0.00 | 0.00 | 0.00 | 99 | 1020.9 | |
| 20260506125519 | 42 | 0.0 | 0.0 | 0.00 | 0.00 | 0.00 | 99 | 1020.9 | |
| 20260506124524 | 42 | 0.0 | 0.0 | 0.00 | 0.00 | 0.00 | 99 | 1020.9 | |
| 20260506123528 | 42 | 0.0 | 0.0 | 0.00 | 0.00 | 0.00 | 99 | 1020.9 | |
| 20260506122515 | 42 | 0.0 | 0.0 | 0.00 | 0.00 | 0.00 | 99 | 1020.9 | |
| 20260506121539 | 43 | 0.0 | 0.0 | 0.00 | 0.00 | 0.00 | 99 | 1021.0 | |
| 20260506120524 | 43 | 0.0 | 0.0 | 0.00 | 0.00 | 0.00 | 99 | 1021.1 | |
| 20260506115522 | 43 | 0.0 | 0.0 | 0.00 | 0.00 | 0.00 | 99 | 1021.1 | |
| 20260506114520 | 43 | 0.0 | 0.0 | 0.00 | 0.00 | 0.00 | 99 | 1021.1 | |
| 20260506113519 | 43 | 0.0 | 0.0 | 0.00 | 0.00 | 0.00 | 99 | 1021.1 | |
| 20260506112517 | 43 | 0.0 | 0.0 | 0.00 | 0.00 | 0.00 | 99 | 1021.0 | |
| 20260506111516 | 43 | 0.0 | 0.0 | 0.00 | 0.00 | 0.00 | 99 | 1021.0 | |
| 20260506110533 | 44 | 0.0 | 0.0 | 0.00 | 0.00 | 0.00 | 99 | 1021.1 | |
| 20260506105519 | 44 | 0.0 | 0.0 | 0.00 | 0.00 | 0.00 | 99 | 1020.9 | |
| 20260506104523 | 44 | 0.0 | 0.9 | 0.00 | 0.00 | 0.00 | 99 | 1020.9 | |
| 20260506103528 | 44 | 0.0 | 0.0 | 0.00 | 0.00 | 0.00 | 99 | 1020.9 | |
| 20260506102532 | 44 | 0.0 | 0.0 | 0.00 | 0.00 | 0.00 | 99 | 1020.9 | |
| 20260506101539 | 44 | 0.0 | 0.0 | 0.00 | 0.00 | 0.00 | 99 | 1020.9 | |
| 20260506100523 | 44 | 0.0 | 0.0 | 0.00 | 0.00 | 0.00 | 99 | 1020.9 | |
| 20260506095608 | 44 | 0.0 | 0.0 | 0.00 | 0.00 | 0.00 | 99 | 1020.9 | |
| 20260506094532 | 44 | 0.0 | 0.0 | 0.00 | 0.00 | 0.00 | 99 | 1020.9 | |
| 20260506093539 | 44 | 0.0 | 0.0 | 0.00 | 0.00 | 0.00 | 99 | 1020.9 | |
| 20260506092523 | 44 | 0.0 | 0.0 | 0.00 | 0.00 | 0.00 | 99 | 1021.0 | |
| 20260506091527 | 44 | 0.0 | 0.0 | 0.00 | 0.00 | 0.00 | 99 | 1021.1 | |
| 20260506090532 | 44 | 0.0 | 0.0 | 0.00 | 0.00 | 0.00 | 99 | 1021.2 | |
| 20260506085518 | 45 | 0.0 | 0.0 | 0.00 | 0.00 | 0.00 | 99 | 1021.2 | |
| 20260506084523 | 45 | 0.0 | 0.0 | 0.00 | 0.00 | 0.00 | 99 | 1021.2 | |
| 20260506083527 | 45 | 0.0 | 0.0 | 0.00 | 0.00 | 0.00 | 99 | 1021.2 | |
| 20260506082532 | 45 | 0.0 | 0.0 | 0.00 | 0.00 | 0.00 | 99 | 1021.3 | |
| 20260506081518 | 45 | 0.0 | 0.0 | 0.00 | 0.00 | 0.00 | 99 | 1021.4 | |
| 20260506080543 | 46 | 0.0 | 0.0 | 0.00 | 0.00 | 0.00 | 99 | 1021.4 | |
| 20260506072523 | 46 | 0.0 | 0.0 | 0.00 | 0.00 | 0.00 | 99 | 1021.2 | |
| 20260506071527 | 47 | 0.0 | 0.0 | 0.00 | 0.00 | 0.00 | 99 | 1021.2 | |
| 20260506070532 | 47 | 9 | 0.0 | 1.7 | 0.00 | 0.00 | 0.00 | 99 | 1021.1 |
| 20260506061538 | 49 | 0.0 | 0.0 | 0.00 | 0.00 | 0.00 | 99 | 1020.7 | |
| 20260506060603 | 49 | 0.0 | 0.0 | 0.00 | 0.00 | 0.00 | 99 | 1020.7 | |
| 20260506050539 | 52 | 270 | 1.7 | 2.6 | 0.00 | 0.00 | 0.00 | 98 | 1020.2 |
| 20260506044535 | 52 | 324 | 0.9 | 1.7 | 0.00 | 0.00 | 0.00 | 96 | 1019.9 |
| 20260506043526 | 52 | 289 | 0.9 | 1.7 | 0.00 | 0.00 | 0.00 | 95 | 1019.9 |
| 20260506042550 | 53 | 279 | 0.9 | 1.7 | 0.00 | 0.00 | 0.00 | 94 | 1019.8 |
| 20260506041517 | 53 | 280 | 0.0 | 0.9 | 0.00 | 0.00 | 0.00 | 93 | 1019.7 |
| 20260506040521 | 54 | 278 | 1.7 | 2.6 | 0.00 | 0.00 | 0.00 | 93 | 1019.6 |
| 20260506035546 | 54 | 292 | 1.7 | 2.6 | 0.00 | 0.00 | 0.00 | 92 | 1019.4 |
| 20260506034550 | 54 | 284 | 1.7 | 2.6 | 0.00 | 0.00 | 0.00 | 90 | 1019.2 |
| 20260506033516 | 55 | 326 | 1.7 | 2.6 | 0.00 | 0.00 | 0.00 | 89 | 1018.9 |
| 20260506032521 | 55 | 305 | 2.6 | 3.5 | 0.00 | 0.00 | 0.00 | 88 | 1018.9 |
| 20260506031526 | 55 | 319 | 2.6 | 3.5 | 0.00 | 0.00 | 0.00 | 86 | 1018.9 |
| 20260506030550 | 56 | 296 | 2.6 | 3.5 | 0.00 | 0.00 | 0.00 | 84 | 1018.7 |
| 20260506025516 | 57 | 289 | 3.5 | 4.3 | 0.00 | 0.02 | 0.00 | 82 | 1018.4 |
| 20260506024541 | 58 | 294 | 3.5 | 4.3 | 0.00 | 0.01 | 0.00 | 78 | 1018.2 |
| 20260506023526 | 60 | 308 | 3.5 | 6.1 | 0.00 | 0.01 | 0.00 | 73 | 1018.2 |
| 20260506022530 | 61 | 305 | 3.5 | 6.1 | 0.00 | 0.01 | 0.00 | 70 | 1018.0 |
| 20260506021516 | 62 | 297 | 3.5 | 6.1 | 0.00 | 0.01 | 0.00 | 66 | 1017.9 |
| 20260506020521 | 63 | 301 | 4.3 | 6.1 | 0.00 | 0.01 | 0.00 | 62 | 1017.8 |
| 20260506015525 | 62 | 307 | 4.3 | 6.1 | 0.00 | 0.01 | 0.00 | 63 | 1017.7 |
| 20260506014530 | 64 | 302 | 4.3 | 7.0 | 0.00 | 0.01 | 0.00 | 63 | 1017.7 |
| 20260506013517 | 64 | 281 | 3.5 | 5.2 | 0.00 | 0.01 | 0.00 | 67 | 1017.4 |
| 20260506012601 | 66 | 256 | 5.2 | 7.8 | 0.00 | 0.01 | 0.00 | 64 | 1017.4 |
| 20260506011525 | 67 | 266 | 6.1 | 7.8 | 0.00 | 0.01 | 0.00 | 62 | 1017.4 |
| 20260506010530 | 68 | 258 | 5.2 | 7.0 | 0.00 | 0.01 | 0.00 | 62 | 1017.5 |
| 20260506005536 | 68 | 274 | 6.1 | 7.8 | 0.00 | 0.01 | 0.00 | 61 | 1017.5 |
| 20260506004521 | 68 | 256 | 6.1 | 7.8 | 0.00 | 0.01 | 0.00 | 60 | 1017.4 |
| 20260506003525 | 68 | 254 | 6.1 | 8.7 | 0.00 | 0.01 | 0.00 | 61 | 1017.4 |
| 20260506002530 | 68 | 257 | 6.1 | 8.7 | 0.00 | 0.01 | 0.00 | 61 | 1017.4 |
| 20260506001517 | 69 | 263 | 5.2 | 7.8 | 0.00 | 0.01 | 0.00 | 60 | 1017.3 |
| 20260506000521 | 69 | 265 | 6.1 | 7.8 | 0.00 | 0.01 | 0.00 | 59 | 1017.3 |
| 20260505235525 | 69 | 254 | 6.1 | 7.8 | 0.00 | 0.01 | 0.00 | 58 | 1017.4 |
| 20260505234530 | 69 | 264 | 5.2 | 7.0 | 0.00 | 0.01 | 0.00 | 60 | 1017.5 |
| 20260505233516 | 70 | 256 | 5.2 | 7.8 | 0.00 | 0.01 | 0.00 | 57 | 1017.4 |
| 20260505232521 | 69 | 254 | 5.2 | 7.8 | 0.00 | 0.01 | 0.00 | 59 | 1017.5 |
| 20260505231525 | 68 | 261 | 4.3 | 7.0 | 0.00 | 0.01 | 0.00 | 58 | 1017.5 |
| 20260505230523 | 71 | 269 | 5.2 | 7.0 | 0.00 | 0.01 | 0.00 | 55 | 1017.5 |
| 20260505225556 | 70 | 252 | 6.1 | 8.7 | 0.00 | 0.01 | 0.00 | 55 | 1017.7 |
| 20260505224520 | 72 | 280 | 6.1 | 7.0 | 0.00 | 0.01 | 0.00 | 54 | 1017.7 |
| 20260505223520 | 70 | 259 | 4.3 | 6.1 | 0.00 | 0.01 | 0.00 | 56 | 1017.8 |
| 20260505222525 | 70 | 242 | 5.2 | 7.8 | 0.00 | 0.01 | 0.00 | 56 | 1017.8 |
| 20260505221609 | 70 | 252 | 5.2 | 7.0 | 0.00 | 0.01 | 0.00 | 56 | 1017.9 |
| 20260505220516 | 68 | 288 | 4.3 | 7.0 | 0.00 | 0.01 | 0.00 | 57 | 1018.0 |
| 20260505215519 | 67 | 261 | 7.0 | 8.7 | 0.00 | 0.01 | 0.00 | 58 | 1018.4 |
| 20260505214544 | 66 | 262 | 6.1 | 9.6 | 0.00 | 0.01 | 0.00 | 60 | 1018.4 |
| 20260505213529 | 66 | 270 | 5.2 | 7.8 | 0.00 | 0.01 | 0.00 | 59 | 1018.4 |
| 20260505212515 | 66 | 261 | 5.2 | 7.0 | 0.00 | 0.01 | 0.00 | 59 | 1018.4 |
| 20260505211540 | 67 | 285 | 6.1 | 7.8 | 0.00 | 0.01 | 0.00 | 57 | 1018.4 |
| 20260505210524 | 67 | 262 | 7.0 | 8.7 | 0.00 | 0.01 | 0.00 | 56 | 1018.4 |
| 20260505205529 | 67 | 272 | 7.0 | 8.7 | 0.00 | 0.01 | 0.00 | 57 | 1018.4 |
| 20260505204515 | 66 | 265 | 7.8 | 10.4 | 0.00 | 0.01 | 0.00 | 58 | 1018.5 |
| 20260505203519 | 67 | 250 | 6.1 | 9.6 | 0.00 | 0.01 | 0.00 | 58 | 1018.5 |
| 20260505202524 | 66 | 269 | 5.2 | 7.0 | 0.00 | 0.01 | 0.00 | 60 | 1018.5 |
| 20260505201528 | 66 | 249 | 7.0 | 9.6 | 0.00 | 0.01 | 0.00 | 59 | 1018.5 |
| 20260505200515 | 65 | 262 | 6.1 | 7.8 | 0.00 | 0.01 | 0.00 | 60 | 1018.5 |
| 20260505195519 | 65 | 252 | 6.1 | 7.8 | 0.00 | 0.01 | 0.00 | 60 | 1018.7 |
| 20260505194524 | 66 | 253 | 7.0 | 9.6 | 0.00 | 0.01 | 0.00 | 58 | 1018.4 |
| 20260505193528 | 68 | 259 | 7.0 | 9.6 | 0.00 | 0.01 | 0.00 | 56 | 1018.5 |
| 20260505192553 | 68 | 284 | 6.1 | 7.8 | 0.00 | 0.01 | 0.00 | 57 | 1018.5 |
| 20260505191519 | 68 | 261 | 6.1 | 7.0 | 0.00 | 0.01 | 0.00 | 57 | 1018.5 |
| 20260505190524 | 68 | 244 | 5.2 | 7.0 | 0.00 | 0.01 | 0.00 | 58 | 1018.5 |
| 20260505185528 | 68 | 258 | 5.2 | 7.8 | 0.00 | 0.01 | 0.00 | 58 | 1018.4 |
| 20260505184526 | 67 | 247 | 5.2 | 7.0 | 0.00 | 0.01 | 0.00 | 59 | 1018.5 |
| 20260505183519 | 66 | 260 | 5.2 | 7.0 | 0.00 | 0.01 | 0.00 | 60 | 1018.5 |
| 20260505182523 | 65 | 274 | 5.2 | 7.0 | 0.00 | 0.01 | 0.00 | 60 | 1018.5 |
| 20260505181602 | 67 | 248 | 5.2 | 7.8 | 0.00 | 0.01 | 0.00 | 59 | 1018.4 |
| 20260505180520 | 68 | 258 | 3.5 | 6.1 | 0.00 | 0.01 | 0.00 | 55 | 1018.4 |
| 20260505175519 | 70 | 279 | 4.3 | 5.2 | 0.00 | 0.01 | 0.00 | 53 | 1018.4 |
| 20260505174517 | 69 | 271 | 3.5 | 5.2 | 0.00 | 0.01 | 0.00 | 53 | 1018.4 |
| 20260505173536 | 68 | 288 | 3.5 | 6.1 | 0.00 | 0.01 | 0.00 | 55 | 1018.2 |
| 20260505172533 | 65 | 271 | 4.3 | 6.1 | 0.00 | 0.01 | 0.00 | 59 | 1018.2 |
| 20260505171519 | 70 | 266 | 4.3 | 7.8 | 0.00 | 0.01 | 0.00 | 53 | 1018.3 |
| 20260505170524 | 69 | 359 | 3.5 | 4.3 | 0.00 | 0.01 | 0.00 | 52 | 1018.4 |
| 20260505165528 | 67 | 286 | 2.6 | 5.2 | 0.00 | 0.01 | 0.00 | 57 | 1018.4 |
| 20260505164533 | 67 | 301 | 3.5 | 5.2 | 0.00 | 0.01 | 0.00 | 58 | 1018.4 |